Regional Weather Roundup
Issued by NWS

Home | Current Version | Previous Version | Text Only | Print | Product List | Glossary Off
Versions: 1 2 3 4 5 6 7 8 9 10 11 12 13 14 15 16 17 18 19 20 21 22 23 24 25 26 27 28 29 30 31 32 33 34 35 36 37 38 39 40 41 42 43 44 45 46 47 48 49 50

000
ASUS45 KABQ 251110
RWRNM
WEATHER ROUNDUP FOR NEW MEXICO
NATIONAL WEATHER SERVICE ALBUQUERQUE NM
500 AM MDT FRI JUL 25 2014

NOTE: "FAIR" MEANS FEW OR NO CLOUDS BELOW 12,000 FEET AGL WITH NO
       SIGNIFICANT WEATHER OR OBSTRUCTIONS TO VISION.

      THIS PRODUCT IS RELEASED AS TWO VERSIONS.  ONE VERSION NEAR
      THE TOP OF THE HOUR CONTAINING PRELIMINARY DATA FROM ALBUQUERQUE
      AND OTHER STATIONS.  A FINAL VERSION WITH ADDITIONAL DATA IS
      ISSUED ABOUT 10 MINUTES AFTER THE HOUR.

NMZ501-503-504-510>518-251200-
NORTHWEST PLATEAU/NORTHCENTRAL MOUNTAINS

CITY           SKY/WX    TMP DP  RH WIND       PRES   REMARKS
FARMINGTON     CLEAR     68  49  50 W5        30.18R
LOS ALAMOS     CLEAR     68  39  33 CALM      30.32S
SANTA FE       PTCLDY    61  45  55 N7        30.26R
TAOS           CLEAR     54  36  50 NE3       30.33S
ANGEL FIRE     FAIR      44  38  81 CALM      30.43S

$$
NMZ402-403-502-505>509-251200-
WESTCENTRAL MOUNTAINS/SOUTHWEST MOUNTAINS

CITY           SKY/WX    TMP DP  RH WIND       PRES   REMARKS
GALLUP         PTCLDY    60  42  51 CALM      30.28S
GRANTS         CLEAR     64  43  46 CALM      30.30F
SILVER CITY    CLEAR     66  41  39 NW8       30.22S

$$
NMZ407-409-411-412-251200-
SOUTHERN DESERTS

CITY           SKY/WX    TMP DP  RH WIND       PRES   REMARKS
LORDSBURG      FAIR      68  41  37 S3        30.10F
DEMING         CLEAR     69  49  48 NE7       30.11S
LAS CRUCES     CLEAR     69  42  37 NW3       30.14S
HOLLOMAN AFB   CLEAR     71  45  38 S3        30.11R
ALAMOGORDO     CLEAR     72  45  37 CALM      30.13R
T OR C         CLEAR     71  44  37 W8        30.15F

$$
NMZ519>523-251200-
CENTRAL VALLEYS/CENTRAL HIGHLANDS

CITY           SKY/WX    TMP DP  RH WIND       PRES   REMARKS
ALBUQUERQUE    MOCLDY    73  42  32 SE5       30.20R
MORIARTY ARPT  FAIR      53  44  73 CALM      30.28R
CLINES CORNERS CLEAR     64  39  39 SW13      30.31R
BELEN          FAIR      70  42  37 SE6       30.18S
SOCORRO        FAIR      67  41  39 SW3       30.16S

$$
NMZ524>526-539-540-251200-
SOUTHCENTRAL MOUNTAINS

CITY           SKY/WX    TMP DP  RH WIND       PRES   REMARKS
RUIDOSO        CLEAR     63  41  45 NW5       30.34R

$$
NMZ527>531-251200-
NORTHEAST HIGHLANDS/NORTHEAST PLAINS

CITY           SKY/WX    TMP DP  RH WIND       PRES   REMARKS
LAS VEGAS      CLEAR     60  40  47 S10       30.28S
RATON          NOT AVBL
CLAYTON        CLEAR     67  47  48 SW9       30.11F

$$
NMZ532>537-251200-
EASTCENTRAL PLAINS

CITY           SKY/WX    TMP DP  RH WIND       PRES   REMARKS
TUCUMCARI      CLEAR     77  51  40 SW21      30.07S
CANNON AFB     CLEAR     69  58  68 SW6       30.15S
CLOVIS AIRPORT NOT AVBL

$$
NMZ028-029-538-251200-
SOUTHEAST PLAINS

CITY           SKY/WX    TMP DP  RH WIND       PRES   REMARKS
ROSWELL        CLEAR     71  47  42 SE7       30.09S
ARTESIA        CLEAR     70  50  49 S6        30.10R
CARLSBAD       CLEAR     76  51  41 SE7       30.08R


$$


USA.gov is the U.S. government's official web portal to all federal, state and local government web resources and services.